Regional Weather Roundup
Issued by NWS Newport/Morehead, NC

Home | Current Version | Previous Version | Text Only | Print | Product List | Glossary On
Versions: 1 2 3 4 5 6 7 8 9 10 11 12 13 14 15 16 17 18 19 20 21 22 23 24 25 26 27 28 29 30 31 32 33 34 35 36 37 38 39 40 41 42 43 44 45 46 47 48 49 50
000
ASUS42 KMHX 260122
RWRMHX
WEATHER ROUNDUP FOR EASTERN NORTH CAROLINA
NATIONAL WEATHER SERVICE NEWPORT/MOREHEAD CITY NC
900 PM EDT SAT OCT 25 2014

NOTE: "FAIR" INDICATES FEW OR NO CLOUDS BELOW 12,000 FEET
WITH NO SIGNIFICANT WEATHER AND/OR OBSTRUCTIONS TO VISIBILITY

NCZ015>017-031-032-045>047-102-103-260200-
NORTH COAST

CITY           SKY/WX    TMP DP  RH WIND       PRES   REMARKS
EDENTON        CLEAR     61  51  68 W6        29.87S
ELIZABETH CITY CLEAR     56  47  71 SW7       29.85F
KITTY HAWK     CLEAR     60  55  85 SW3       29.84F
MANTEO         CLEAR     61  52  73 SW8       29.86S

$$

NCZ045>047-081-094-103-104-260200-
CENTRAL COAST

CITY           SKY/WX    TMP DP  RH WIND       PRES   REMARKS
FRISCO         CLEAR     63  53  70 W8        29.88F
SWANQUARTER      N/A     63 N/A N/A SW9       29.85S

$$

NCZ095-097-098-100-101-260200-
SOUTHERN COAST

CITY           SKY/WX    TMP DP  RH WIND       PRES   REMARKS
BEAUFORT       CLEAR     65  54  67 W7        29.90F
CEDAR ISLAND     N/A     61 N/A N/A SW6       29.91F
JACKSONVILLE   CLEAR     56  52  86 S3        29.90F
PINEY ISLAND   CLEAR     61  51  70 SW8       29.89F
WILMINGTON     CLEAR     53  50  89 SW3       29.92F


$$

NCZ011>013-027>030-043-044-078>080-089-090>093-098-260200-
COASTAL PLAIN

CITY           SKY/WX    TMP DP  RH WIND       PRES   REMARKS
AHOSKIE        CLEAR     50  46  85 CALM      29.87S
CLINTON        CLEAR     52  50  92 CALM      29.92S
ELIZABETHTOWN  CLEAR     53  47  80 CALM      29.93S
GOLDSBORO      CLEAR     58  52  81 CALM      29.88F
GREENVILLE     CLEAR     54  46  76 CALM      29.91S
HAVELOCK       CLEAR     58  51  78 SW8       29.90F
KENANSVILLE    CLEAR     49  47  92 CALM      29.92S
KINSTON        CLEAR     52  48  87 CALM      29.90F
NEW BERN       CLEAR     57  51  80 SW3       29.91F
RICHLANDS      CLEAR     52  46  82 CALM      29.91F
ROCKY MOUNT    CLEAR     52  47  83 S3        29.88F
WASHINGTON     CLEAR     54  49  83 CALM      29.89S
WHITEVILLE     CLEAR     55  48  78 CALM      29.93S

$$

AMZ130-135-150-152-154-156-158-170-250-252-270-ANZ085-086-088-633-658-670-260200-
MARINE OBSERVATIONS

STATION/POSITION TIME  TEMP    WIND        PRES    WAVE   SWELL
                       AIR SEA DIR/SP/G            HT/PER HT/PER
                 (UTC) (F)     (DEG/KT/KT) (MB)    (FT/S) (FT/S)
CHESAPEAKE LIGHT 0100   65     240/ 16/ 18 1010.2
64 E VA BEACH    0100   65 66  230/ 14/ 16 1009.4    2/ 9   2/ 9
DUCK             0100   63 67  210/  9/ 11 1009.8
2 E DUCK         0100                        N/A     2/10
10 NE DUCK       0100      67                N/A     3/11   2/11
OREGON INLET     0100   63 66  240/ 14/ 15 1010.7
13E OREGON INLT  0100      69                N/A     3/ 9   2/11
HATTERAS CG      0100   65 67  240/  7/  8 1012.1
DIAMOND BUOY     0100   67     250/ 14/ 17 1012.1    3/ 9   2/ 9
17 S OCRACOKE    0000          VRB 10/ 12  1012.5
CAPE LOOKOUT     0100   67     250/  9/ 10 1012.5
BEAUFORT LAB     0100   67 68  250/  5/  9 1011.8
30 SE NEW RIVER  0100   70 75  240/ 14/ 17 1012.6    2/ 9   2/ 9
5 SE WRIGHTSVLE  0100   65 72  260/ 14/ 16   N/A
225 S CAPE HAT   NOT AVBL
41 SE CHARLESTON 0100   71 77  290/ 10/ 12 1014.6    2/10   2/10

$$



USA.gov is the U.S. government's official web portal to all federal, state and local government web resources and services.